Погода в Дзарджане

Погода в Дзарджане : погода сейчас, прогноз погоды и архив. Всё, что Вы хотите узнать о погоде в Дзарджане!

Поиск расширенной информации на нашем сайте:

Другие новости

Новости СМИ2

Главная страница сайта

Новости сайта

03.07.2017

Напоминаем, что на нашем специализированном сайте Метеоцентр.Азия вы можете получить высокодетализированные автоматические прогнозы погоды по пунктам России, СНГ и мира в авиационном формате (включающие направление и скорость ветра, видимость, явления погоды, количество и форму облачности, нижнюю и верхнюю границу облачности).


Погода в Дзарджане - сегодня

Время (UTC), дата Ветер
(°,м/с) 
Видим.   Явления Облачность Т
(°С)
Тd
(°С)
f(%) Тe
(°С)
Pmin
(гПа)
dP
(гПа)
Po
(мм)
O2
(г/м3)
Тmin Tmax R s Состояние
почвы
00 21.09.17 180 (Ю) 10 км  слаб. дождь со снегом  10/0 средняя 
[As op]
+0.4 -0.7 92 -1  1007  0.3  752  302  -0.6    0.6    влажная 
03 21.09.17 180 (Ю) 10 км  слаб. дождь со снегом  10/0 средняя 
[As op]
+0.9 +0.1 94 -1  1007.5  0.5  752  302           
06 21.09.17 230 (ЮЗ) 10 км  слаб. дождь{снег}  10/0 средняя 
[As op]
+1.6 +0.8 94 -2  1008  0.5  752  301           
09 21.09.17 230 (ЮЗ) 20000 м  слаб. дождь  10/0 средняя 
[As op]
+1.5 +0.7 94 1008.9  0.9  753  302           
12 21.09.17 230 (ЮЗ) 20000 м  {дождь}  10/0 средняя 
[As op]
+1.6 +1.1 96 +1  1010.3  1.3  754  302    +1.9     
15 21.09.17 320 (СЗ) 20000 м    10/0 средняя 
[As op]
+1.7 +0.9 94 +2  1011.3  755  302           
18 21.09.17 360 (С) 20000 м    10/0 средняя 
[As op]
+1 +0.5 96 -1  1012.7  1.4  756  303           
21 21.09.17 360 (С) 20000 м    10/0 средняя 
[As op]
-0.6 -1.2 96 -2  1014.8  2.1  757  306           
00 22.09.17 020 (С) 20000 м    9/0 средняя 
[Ac As]
-1.6 -2.7 92 -3  1016.6  1.8  759  308  -1.9        влажная 
03 22.09.17 тихо ()   20000 м    10/10 600 м 
[Ns]
-0.9 -3.1 85 -1  1017.9  1.3  760  308           
06 22.09.17 090 (В) 20000 м    10/10 600 м 
[Ns]
+0.5 -2.6 80 1018.7  0.8  760  306           
09 22.09.17 050 (СВ) 20000 м    10/0 средняя 
[Ac und]
+0.3 -2.6 81 1018.9  0.2  761  306           
12 22.09.17 050 (СВ) 20000 м    10/0 средняя 
[Ac und]
-0.2 -2.6 84 -1  1019.3  0.4  761  307    +0.8       
15 22.09.17 050 (СВ) 20000 м    10/0 средняя 
[Ac und]
-1 -2.9 87 -4  1019.3  761  308           
18 22.09.17 050 (СВ) 20000 м    10/0 средняя 
[Ac und]
-1.4 -3.4 86 -3  1019.3  761  309           
21 22.09.17 050 (СВ) 20000 м    10/0 средняя 
[Ac und]
-1.4 -3.7 84 -3  1019.3  761  309           
00 23.09.17 050 (СВ) 20000 м    10/0 средняя 
[As op]
-1.1 -3.7 82 -3  1019.4  0.1  761  308  -1.6        замёрзшая 
03 23.09.17 020 (С) 20000 м    10/0 средняя 
[As op]
+0.4 -3.4 76 -2  1019.2  -0.2  761  306           
06 23.09.17 020 (С) 20000 м  слаб. снег  10/0 средняя 
[As op]
-0.4 -3.4 80 -3  1018.6  -0.6  760  307           
09 23.09.17 020 (С) 20000 м  {снег}  10/0 средняя 
[As op]
-0.4 -5.5 68 -3  1018.4  -0.2  760  307           
12 23.09.17 020 (С) 5{11}  20000 м  {снег}  10/0 средняя 
[As op]
-1.5 -5.6 74 -5  1017.6  -0.8  760  308    +0.6  0.3     
15 23.09.17 020 (С) 20000 м    10/0 средняя 
[As op]
-2.3 -5.5 79 -5  1017.4  -0.2  759  309           
21 23.09.17 020 (С) 20000 м    10/0 средняя 
[As op]
-3.9 -5.4 89 -7  1016.8  -0.4  759  311           
00 24.09.17 020 (С) 5{11}  20000 м    10/0 средняя 
[As op]
-3.2 -5.3 85 -7  1016.5  -0.3  759  310  -4.3        замёрзшая 
03 24.09.17 020 (С) 4{11}  20000 м    10/0 средняя 
[As op]
-2 -4.5 83 -5  1016  -0.4  758  308           
Время (UTC), дата Ветер
(°,м/с) 
Видим.   Явления Облачность Т
(°С)
Тd
(°С)
f(%) Тe
(°С)
Pmin
(гПа)
dP
(гПа)
Po
(мм)
O2
(г/м3)
Тmin Tmax R s Состояние
почвы

Для получения пояснительной информации подведите курсор к названию столбца.

ПОГОДА в Дзарджане - архив

Всё, что Вы хотите узнать о погоде в Дзарджане - удобно и подробно!

Выберите нужную дату (начиная с 1 января 2015* года) и нажмите кнопку "Найти".
Будут отображены архивные сводки погоды по пункту Дзарджан, начиная с указанной даты.


Отображать данные в формате CSV (для использования в таблицах Excel)


Внимание! Наш архив погоды предназначен исключительно для личного некоммерческого использования в познавательных целях. Если Вам необходимы официальные справки о состоянии погоды (для производственных, юридических, коммерческих и т.п. целей), обращайтесь в органы Росгидромета.

*Примечание: данная дата относится к архиву по метеостанциям СССР (Россия, СНГ, Балтия).
Архив по метеостанциям Зарубежной Европы и Азии (кроме Китая) хранится 10 дней, по другим регионам земного шара (Китай, Африка, Америка, Австралия, Океания) - 1 день.

Дзарджан - район местоположения метеостанции


Название, широта, долгота, высота метеостанции:
Дзарджан 68.7°ш. 124°д. 39 м над ур. моря [Российская Федерация]

Дополнительная информация

В oтличие oт бoльшинства пoгoдных сайтoв мы публикуем пoдрoбную метеoинфoрмацию в детальнoм прoфессиoнальнoм фoрмате.

Характеристики температуры и влажнoсти вoздуха измеряются на высoте 2 м в тени вдали oт зданий и деревьев.
Скoрoсть ветра измеряется на высoте 10 м (на урoвне рoста челoвека скoрoсть ветра ниже в 1.5-2 раза). Если метеoстанция нахoдится в гoрoде или в лесу, тo скoрoсть ветра занижена на 2-4 м/с пo сравнению с oткрытым местoм. Скoрoсть ветра над акватoриями крупных рек и oзёр, а также на вершинах хoлмoв на 2-5 м/с выше, чем в oбычных услoвиях.
Атмoсфернoе давление в разных тoчках местнoсти мoжет значительнo oтличаться oт давления на метеoстанции, в зависимoсти oт услoвий рельефа (при пoдъёме на 10 м давление пoнижается примернo на 1 мм рт.ст.).